Content
SEND FEEDBACK

Daily
Averages
Monthly
Summary
United States of America

ASHEVILLE, NORTH CAROLINA


Home > North America > United States > North Carolina
Elevation: 2240 feet     Latitude: 35 36N     Longitude: 082 32W

WEATHER
 
SELECT A DAY
Number of Records: 225,823;   Date Range: 1/1/95 - 7/29/14
 
SHARE

PRINT THIS DATA

[ ← Previous Day ]
WEATHER ALMANAC - FEBRUARY 2, 2013
[ Next Day → ]
[ °C ]   °F
Weather ElementAverageHighLow
Temperature30.8 °F41 °F (1:54 pm)19.4 °F (3:54 am)
Dewpoint20 °F30.9 °F (7:54 pm)9 °F (1:54 am)
Humidity67.4 %92 % (10:54 pm)29 % (12:54 pm)
Barometer30.17 in30.35 in (1:54 am)30.01 in (11:54 pm)
Wind Speed7.1 mph13.8 mph (1:54 pm)
Wind Gust19.6 mph (1:54 pm)
Weather ElementAverage
Visibility10 mi
Wind DirectionS (178.8 °)

Weather ElementTotal
Precipitation---
Heating Degree Days34.8 (Base 65)
Averaged from 25 records on February 2, 2013
WEATHER CONDITIONS BREAKOUT
WIND DIRECTION BREAKOUT
WEATHER BY HOUR - FEBRUARY 2, 2013
[ °C ]   °F
Local TimeTemperatureDewpointHumidityBarometerVisibilityWind DirectionWind SpeedGust SpeedPrecipitationEventsConditions
1:54 AM21.0 °F9.0 °F60 %30.35 in10.0 miNNW (340°)5.8 mphClear
2:54 AM21.0 °F9.0 °F60 %30.32 in10.0 miCalmClear
3:54 AM19.4 °F10.4 °F68 %30.27 in10.0 miCalmClear
4:54 AM21.0 °F12.0 °F68 %30.30 in10.0 miCalmClear
5:54 AM21.0 °F12.9 °F71 %30.32 in10.0 miSE (130°)3.5 mphClear
6:54 AM21.2 °F12.2 °F68 %30.26 in10.0 miSE (130°)5.8 mphClear
7:54 AM21.9 °F12.0 °F66 %30.33 in10.0 miESE (110°)5.8 mphClear
8:54 AM25.0 °F12.0 °F58 %30.32 in10.0 miSE (130°)5.8 mphPartly Cloudy
9:54 AM28.0 °F9.0 °F45 %30.30 in10.0 miSE (140°)9.2 mphOvercast
10:54 AM33.1 °F10.0 °F38 %30.27 in10.0 miSSE (160°)8.1 mphPartly Cloudy
11:54 AM37.9 °F9.0 °F30 %30.23 in10.0 miSouth (180°)9.2 mphMostly Cloudy
12:54 PM39.9 °F10.0 °F29 %30.18 in10.0 miSW (230°)5.8 mphMostly Cloudy
1:54 PM41.0 °F18.0 °F40 %30.12 in10.0 miSouth (180°)13.8 mph19.6 mphOvercast
2:54 PM39.9 °F25.0 °F55 %30.10 in10.0 miSouth (190°)12.7 mphOvercast
3:54 PM37.9 °F24.1 °F57 %30.09 in10.0 miSouth (190°)12.7 mph19.6 mphOvercast
4:54 PM36.0 °F30.0 °F79 %30.09 in10.0 miSSW (200°)10.4 mphOvercast
5:54 PM34.0 °F30.0 °F85 %30.07 in10.0 miSouth (190°)9.2 mphOvercast
6:54 PM34.0 °F30.0 °F85 %30.07 in10.0 miSW (220°)5.8 mph16.1 mphOvercast
7:06 PM33.8 °F30.2 °F87 %30.02 in10.0 miSSW (210°)8.1 mphOvercast
7:28 PM33.8 °F30.2 °F87 %30.03 in9.0 miSSW (210°)12.7 mph0.00 inOvercast
7:54 PM34.0 °F30.9 °F89 %30.07 in10.0 miSSW (210°)11.5 mph0.00 inSnowLight Snow
8:54 PM34.0 °F30.9 °F89 %30.08 in10.0 miSSW (210°)4.6 mph0.00 inOvercast
9:54 PM34.0 °F30.9 °F89 %30.06 in10.0 miSW (220°)6.9 mphOvercast
10:54 PM33.1 °F30.9 °F92 %30.04 in10.0 miNNW (340°)4.6 mphOvercast
11:54 PM34.0 °F30.9 °F89 %30.01 in10.0 miNorth (350°)5.8 mphOvercast
Hourly data recorded from KAVL, located miles away from Asheville, North Carolina







STORIES FROM OUR PARTNERS